Weather History for Toul, France

Change the Weather History Date:

Thursday, March 14, 2013

  Actual Average (LFSN) Record (LFSN)
Temperature  
Mean Temperature 34 °F -  
Max Temperature 41 °F 51 °F 67 °F (2014)
Min Temperature 28 °F 38 °F 31 °F (2014)
Degree Days  
Heating Degree Days 30    
Moisture  
Dew Point 25 °F    
Average Humidity 70    
Maximum Humidity 93    
Minimum Humidity 42    
Precipitation  
Precipitation 0.00 in - - ()
Sea Level Pressure  
Sea Level Pressure 29.89 in    
Wind  
Wind Speed 9 mph ()    
Max Wind Speed 18 mph    
Max Gust Speed 30 mph    
Visibility 6.0 miles    
Events Snow    
Averages and records for this station are not official NWS values.
T = Trace of Precipitation, MM = Missing Value Source: Averaged Metar Reports

Daily Weather History Graph

Daily Weather History Graph

Search for Another Location

Airport:

Trip Planner

Search our weather history database for the weather conditions in past years. The results will help you decide how hot, cold, wet, or windy it might be!

Date:

Astronomy

Mar. 14, 2013 Rise Set
Actual Time 6:51 AM CET 6:39 PM CET
Civil Twilight 6:20 AM CET 7:11 PM CET
Nautical Twilight 5:43 AM CET 7:48 PM CET
Astronomical Twilight 5:05 AM CET 8:25 PM CET
Moon 7:39 AM CET (3/14) 9:59 PM CET (3/14)
Length of Visible Light 12h 51m
Length of Day
11h 48m
Waxing Crescent, 7% of the Moon is Illuminated
Mar 14
Waxing Crescent
Mar 19
First Quarter
Mar 27
Full
Apr 3
Last Quarter
Apr 10
New

Hourly Weather History & Observations

Time (CET) Temp. Windchill Dew Point Humidity Pressure Visibility Wind Dir Wind Speed Gust Speed Precip Events Conditions
12:00 AM 32.0 °F 24.2 °F 24.8 °F 75% 29.86 in 6.2 mi NW 9.2 mph - N/A   Unknown
12:30 AM 30.2 °F 21.9 °F 24.8 °F 80% 29.89 in 6.2 mi NW 9.2 mph - N/A   Unknown
1:00 AM 30.2 °F 22.6 °F 24.8 °F 80% 29.89 in 6.2 mi NNW 8.1 mph - N/A   Unknown
1:30 AM 30.2 °F 24.3 °F 26.6 °F 86% 29.89 in 6.2 mi NNW 5.8 mph - N/A   Unknown
2:00 AM 32.0 °F 25.6 °F 26.6 °F 80% 29.89 in 6.2 mi NNW 6.9 mph - N/A   Unknown
2:30 AM 32.0 °F 25.6 °F 26.6 °F 80% 29.89 in 6.2 mi NW 6.9 mph - N/A   Unknown
3:00 AM 32.0 °F 23.6 °F 26.6 °F 80% 29.89 in 6.2 mi NW 10.4 mph - N/A   Overcast
3:30 AM 32.0 °F 25.6 °F 26.6 °F 80% 29.86 in 6.2 mi NW 6.9 mph - N/A   Overcast
4:00 AM 32.0 °F 25.6 °F 28.4 °F 87% 29.86 in 1.4 mi NNW 6.9 mph - N/A Snow Light Snow
4:30 AM 32.0 °F 26.4 °F 28.4 °F 87% 29.86 in 6.2 mi NW 5.8 mph - N/A Snow Light Snow
5:00 AM 32.0 °F 24.8 °F 28.4 °F 87% 29.86 in 6.2 mi NW 8.1 mph - N/A   Overcast
5:30 AM 32.0 °F 27.5 °F 28.4 °F 87% 29.86 in 3.1 mi NW 4.6 mph - N/A Snow Light Snow
6:00 AM 32.0 °F 25.6 °F 28.4 °F 87% 29.86 in 6.2 mi NW 6.9 mph - N/A   Overcast
6:30 AM 32.0 °F 25.6 °F 28.4 °F 87% 29.86 in 6.2 mi NW 6.9 mph - N/A   Overcast
7:00 AM 30.2 °F 24.3 °F 26.6 °F 86% 29.86 in 6.2 mi NW 5.8 mph - N/A   Mostly Cloudy
7:30 AM 28.4 °F 24.6 °F 26.6 °F 93% 29.86 in 5.6 mi WNW 3.5 mph - N/A   Unknown
8:00 AM 30.2 °F 24.3 °F 26.6 °F 86% 29.86 in 6.2 mi West 5.8 mph - N/A   Scattered Clouds
8:30 AM 32.0 °F 26.4 °F 28.4 °F 87% 29.89 in 6.2 mi WNW 5.8 mph - N/A   Partly Cloudy
9:00 AM 33.8 °F 27.0 °F 28.4 °F 81% 29.89 in 6.2 mi NW 8.1 mph - N/A   Unknown
9:30 AM 33.8 °F 25.8 °F 28.4 °F 81% 29.89 in 6.2 mi NNW 10.4 mph - N/A   Mostly Cloudy
10:00 AM 35.6 °F 28.0 °F 28.4 °F 75% 29.89 in 6.2 mi NNW 10.4 mph - N/A   Mostly Cloudy
10:30 AM 35.6 °F 27.5 °F 28.4 °F 75% 29.89 in 6.2 mi NNW 11.5 mph - N/A   Mostly Cloudy
11:00 AM 37.4 °F 28.9 °F 28.4 °F 70% 29.89 in 6.2 mi North 13.8 mph - N/A   Mostly Cloudy
11:30 AM 37.4 °F 28.5 °F 24.8 °F 60% 29.89 in 6.2 mi NNW 15.0 mph - N/A   Overcast
12:00 PM 37.4 °F 28.9 °F 24.8 °F 60% 29.89 in 6.2 mi NNW 13.8 mph - N/A   Mostly Cloudy
12:30 PM 39.2 °F 30.5 °F 23.0 °F 52% 29.89 in 6.2 mi NNW 16.1 mph - N/A   Mostly Cloudy
1:00 PM 39.2 °F 30.8 °F 24.8 °F 56% 29.89 in 6.2 mi NNW 15.0 mph - N/A   Mostly Cloudy
1:30 PM 39.2 °F 30.2 °F 21.2 °F 49% 29.89 in 6.2 mi NNW 17.3 mph - N/A   Mostly Cloudy
2:00 PM 39.2 °F 31.2 °F 23.0 °F 52% 29.89 in 6.2 mi NNW 13.8 mph - N/A   Mostly Cloudy
2:30 PM 39.2 °F 31.2 °F 23.0 °F 52% 29.86 in 6.2 mi NNW 13.8 mph - N/A   Overcast
3:00 PM 39.2 °F 30.2 °F 21.2 °F 49% 29.86 in 6.2 mi North 17.3 mph - N/A   Mostly Cloudy
3:30 PM 39.2 °F 30.5 °F 21.2 °F 49% 29.86 in 6.2 mi NNW 16.1 mph - N/A   Overcast
4:00 PM 41.0 °F 32.2 °F 19.4 °F 42% 29.86 in 6.2 mi NNW 18.4 mph - N/A   Mostly Cloudy
4:30 PM 41.0 °F 32.2 °F 23.0 °F 49% 29.89 in 6.2 mi North 18.4 mph 29.9 mph N/A   Mostly Cloudy
5:00 PM 41.0 °F 33.1 °F 23.0 °F 49% 29.89 in 6.2 mi NNW 15.0 mph - N/A   Mostly Cloudy
5:30 PM 39.2 °F 31.2 °F 23.0 °F 52% 29.89 in 6.2 mi North 13.8 mph - N/A   Scattered Clouds
6:00 PM 37.4 °F 28.2 °F 23.0 °F 56% 29.89 in 6.2 mi North 16.1 mph - N/A   Partly Cloudy
6:30 PM 37.4 °F 29.3 °F 21.2 °F 52% 29.89 in 6.2 mi North 12.7 mph - N/A   Unknown
7:00 PM 35.6 °F 29.2 °F 21.2 °F 56% 29.92 in 6.2 mi NNW 8.1 mph - N/A   Unknown
7:30 PM 35.6 °F 26.6 °F 21.2 °F 56% 29.92 in 6.2 mi NNW 13.8 mph - N/A   Scattered Clouds
8:00 PM 35.6 °F 27.5 °F 21.2 °F 56% 29.95 in 6.2 mi NNW 11.5 mph - N/A   Unknown
8:30 PM 33.8 °F 25.8 °F 23.0 °F 65% 29.95 in 6.2 mi NNW 10.4 mph - N/A   Unknown
9:00 PM 33.8 °F 27.7 °F 23.0 °F 65% 29.95 in 6.2 mi NNW 6.9 mph - N/A   Unknown
9:30 PM 32.0 °F 25.6 °F 23.0 °F 69% 29.98 in 6.2 mi NW 6.9 mph - N/A   Unknown
10:00 PM 30.2 °F 23.4 °F 24.8 °F 80% 29.98 in 6.2 mi NW 6.9 mph - N/A   Unknown
10:30 PM 30.2 °F 24.3 °F 24.8 °F 80% 29.98 in 6.2 mi WNW 5.8 mph - N/A   Unknown
11:00 PM 28.4 °F 22.2 °F 23.0 °F 80% 29.98 in 6.2 mi NW 5.8 mph - N/A   Unknown
11:30 PM 28.4 °F 21.2 °F 24.8 °F 86% 29.98 in 6.2 mi WNW 6.9 mph - N/A   Unknown